Location: Isle of Man Observatory
(54.1776°N, 4.6264°W)
Time: 08:07:53
(UTC+01:00)

N. Korean satellite - Visible Passes

Search period start: 25 January 2021 00:00
Search period end: 04 February 2021 00:00
Orbit: 452 x 502 km, 97.2° (Epoch: 24 January)

Date Brightness Start Highest point End Pass type
(mag) Time Alt. Az. Time Alt. Az. Time Alt. Az.
25 Jan 9.7 05:45:20 10° ENE 05:47:08 13° E 05:48:54 10° ESE visible
25 Jan 6.4 07:17:25 10° N 07:20:52 63° WNW 07:24:16 10° SSW visible
26 Jan 6.8 06:50:48 10° NNE 06:54:17 65° ESE 06:57:41 10° S visible
26 Jan 8.2 08:25:10 10° NNW 08:27:10 15° WNW 08:29:10 10° W visible
26 Jan 9.9 19:07:13 10° WSW 19:09:04 13° W 19:10:54 10° WNW visible
27 Jan 8.2 06:24:24 10° NNE 06:27:35 33° E 06:30:43 10° SSE visible
27 Jan 7.5 07:57:56 10° N 08:00:49 24° WNW 08:03:40 10° WSW visible
27 Jan 9.4 18:39:15 10° SSW 18:42:13 23° W 18:45:11 10° NW visible
28 Jan 9.3 05:58:20 10° NE 06:00:48 18° E 06:03:14 10° SE visible
28 Jan 6.7 07:31:02 10° N 07:34:21 44° WNW 07:37:38 10° SW visible
29 Jan 6.3 07:04:19 10° NNE 07:07:48 87° WNW 07:11:13 10° SSW visible
30 Jan 7.5 06:37:47 10° NNE 06:41:09 46° E 06:44:27 10° S visible
30 Jan 7.9 08:11:44 10° NNW 08:14:13 19° WNW 08:16:40 10° WSW visible
30 Jan 9.7 18:53:23 10° SW 18:55:51 17° W 18:58:19 10° NW visible
31 Jan 8.8 06:11:31 10° NE 06:14:24 24° E 06:17:15 10° SSE visible
31 Jan 7.1 07:44:40 10° N 07:47:48 32° WNW 07:50:52 10° SW visible
01 Feb 9.7 05:45:45 10° ENE 05:47:33 13° E 05:49:19 10° ESE visible
01 Feb 6.4 07:17:51 10° N 07:21:16 61° WNW 07:24:38 10° SSW visible
02 Feb 6.8 06:51:13 10° NNE 06:54:39 66° ESE 06:58:03 10° S visible
02 Feb 8.2 08:25:38 10° NNW 08:27:32 14° WNW 08:29:27 10° W visible
02 Feb 10.0 19:07:47 10° WSW 19:09:28 13° W 19:11:09 10° WNW visible
03 Feb 8.2 06:24:47 10° NNE 06:27:57 33° E 06:31:04 10° SSE visible
03 Feb 7.6 07:58:20 10° N 08:01:09 24° WNW 08:03:57 10° WSW visible
03 Feb 9.4 18:39:44 10° SSW 18:42:37 23° W 18:45:29 10° NW visible
